Date String (YYYY-MM-DD hh:mm:ss) UTC,Instrument flags,Ambient pressure (hPa),Sample flow (lpm),Bypass flow (lpm),Sample temperature (°C),Ambient temperature (°C),ASC tube jacket temperature (°C),LED temperature (°C),Box temperature (°C),Sample RH (%),Span deviation,Mass concentration (μg/m³),Mass concentration (μg/m³),Mass concentration (μg/m³)
DateTimeUTC,F1_M11,P_M11,Q1_M11,Q2_M11,T1_M11,T2_M11,T3_M11,T4_M11,T5_M11,U1_M11,ZSPAN_M11,X0_M11,X2_M11,X1_M11
2021-11-03 20:00:00,,0831.2,4.99,0.00,27.6,26.9,00.0,36.6,29.5,16.8,0000.0,0004.68,0003.35,0003.21
2021-11-03 20:01:00,,0831.2,4.99,0.00,27.6,26.9,00.0,36.6,29.5,16.7,0000.0,0004.86,0003.39,0003.21
2021-11-03 20:02:00,,0831.2,5.00,0.00,27.6,26.9,00.0,36.6,29.4,16.4,0000.0,0004.99,0003.42,0003.22
2021-11-03 20:03:00,,0831.2,5.01,0.00,27.6,26.9,00.0,36.6,29.5,16.4,0000.0,0005.08,0003.45,0003.24
2021-11-03 20:04:00,,0831.2,4.99,0.00,27.6,26.9,00.0,36.6,29.5,16.3,0000.0,0005.11,0003.46,0003.26
2021-11-03 20:05:00,,0831.2,5.00,0.00,27.6,26.9,00.0,36.6,29.4,16.6,0000.0,0005.12,0003.47,0003.26
2021-11-03 20:06:00,,0831.2,5.00,0.00,27.6,26.9,00.0,36.6,29.4,16.3,0000.0,0005.15,0003.51,0003.30
2021-11-03 20:07:00,,0831.2,5.00,0.00,27.6,26.9,00.0,36.6,29.4,16.3,0000.0,0005.66,0003.56,0003.34
2021-11-03 20:08:00,,0831.2,4.99,0.00,27.6,26.9,00.0,36.6,29.5,16.2,0000.0,0006.44,0003.63,0003.40
2021-11-03 20:09:00,,0831.2,5.00,0.00,27.6,27.0,00.0,36.6,29.5,16.2,0000.0,0006.81,0003.68,0003.45
2021-11-03 20:10:00,,0831.2,5.01,0.00,27.7,27.0,00.0,36.6,29.5,16.3,0000.0,0007.77,0003.72,0003.49
2021-11-03 20:11:00,,0831.1,4.99,0.00,27.6,27.0,00.0,36.6,29.5,16.2,0000.0,0007.88,0003.79,0003.52
2021-11-03 20:12:00,,0831.1,5.01,0.00,27.6,27.0,00.0,36.6,29.5,16.3,0000.0,0007.85,0003.79,0003.53
2021-11-03 20:13:00,,0831.1,5.00,0.00,27.6,27.0,00.0,36.6,29.4,16.2,0000.0,0007.80,0003.78,0003.55
2021-11-03 20:14:00,,0831.1,4.99,0.00,27.6,27.0,00.0,36.6,29.4,16.3,0000.0,0007.77,0003.80,0003.57
2021-11-03 20:15:00,,0831.0,5.00,0.00,27.6,27.0,00.0,36.7,29.4,16.2,0000.0,0007.82,0003.84,0003.60
2021-11-03 20:16:00,,0831.0,5.01,0.00,27.6,27.0,00.0,36.7,29.4,16.1,0000.0,0008.04,0003.92,0003.67
2021-11-03 20:17:00,,0831.0,4.99,0.00,27.6,27.0,00.0,36.7,29.4,16.1,0000.0,0008.31,0003.98,0003.70
2021-11-03 20:18:00,,0831.0,4.99,0.00,27.6,27.0,00.0,36.7,29.5,16.2,0000.0,0008.48,0004.01,0003.72
2021-11-03 20:19:00,,0831.0,5.00,0.00,27.7,27.0,00.0,36.7,29.5,16.3,0000.0,0007.88,0004.02,0003.74
2021-11-03 20:20:00,,0831.0,5.00,0.00,27.7,27.0,00.0,36.7,29.5,16.3,0000.0,0008.10,0004.05,0003.76
2021-11-03 20:21:00,,0831.0,4.99,0.00,27.7,27.0,00.0,36.7,29.5,16.0,0000.0,0007.99,0004.08,0003.80
2021-11-03 20:22:00,,0831.0,4.99,0.00,27.7,27.0,00.0,36.7,29.6,15.9,0000.0,0007.96,0004.08,0003.82
2021-11-03 20:23:00,,0831.0,5.01,0.00,27.7,27.0,00.0,36.7,29.6,16.1,0000.0,0007.96,0004.09,0003.83
2021-11-03 20:24:00,,0831.0,5.00,0.00,27.7,27.1,00.0,36.7,29.6,16.0,0000.0,0008.17,0004.12,0003.86
2021-11-03 20:25:00,,0831.1,4.99,0.00,27.7,27.1,00.0,36.7,29.6,15.8,0000.0,0008.45,0004.13,0003.86
2021-11-03 20:26:00,,0831.0,5.01,0.00,27.8,27.1,00.0,36.7,29.6,15.9,0000.0,0008.76,0004.11,0003.84
2021-11-03 20:27:00,,0831.0,4.99,0.00,27.8,27.1,00.0,36.7,29.6,15.9,0000.0,0008.71,0004.09,0003.82
2021-11-03 20:28:00,,0830.9,5.01,0.00,27.8,27.2,00.0,36.7,29.7,16.1,0000.0,0008.51,0004.04,0003.79
2021-11-03 20:29:00,,0830.9,5.00,0.00,27.8,27.2,00.0,36.8,29.7,16.1,0000.0,0008.60,0004.00,0003.76
2021-11-03 20:30:00,,0831.0,5.00,0.00,27.8,27.2,00.0,36.8,29.7,15.9,0000.0,0008.83,0003.98,0003.74
2021-11-03 20:31:00,,0831.0,5.00,0.00,27.8,27.2,00.0,36.8,29.7,16.2,0000.0,0008.72,0003.96,0003.72
2021-11-03 20:32:00,,0831.0,5.01,0.00,27.8,27.2,00.0,36.8,29.7,15.8,0000.0,0007.91,0003.94,0003.69
2021-11-03 20:33:00,,0831.0,5.00,0.00,27.9,27.2,00.0,36.8,29.7,15.6,0000.0,0007.92,0003.93,0003.68
2021-11-03 20:34:00,,0830.9,5.00,0.00,27.9,27.3,00.0,36.8,29.8,15.5,0000.0,0007.90,0003.91,0003.68
2021-11-03 20:35:00,,0831.0,4.99,0.00,27.9,27.3,00.0,36.8,29.8,15.6,0000.0,0007.81,0003.92,0003.66
2021-11-03 20:36:00,,0831.0,5.00,0.00,27.9,27.3,00.0,36.8,29.8,15.4,0000.0,0008.22,0003.89,0003.63
2021-11-03 20:37:00,,0830.9,5.01,0.00,28.0,27.3,00.0,36.9,29.9,15.4,0000.0,0008.22,0003.88,0003.61
2021-11-03 20:38:00,,0830.9,4.99,0.00,28.0,27.3,00.0,36.9,29.9,15.6,0000.0,0008.22,0003.85,0003.57
2021-11-03 20:39:00,,0830.9,5.00,0.00,28.0,27.3,00.0,36.9,29.9,15.3,0000.0,0008.04,0003.79,0003.55
2021-11-03 20:40:00,,0831.0,5.01,0.00,28.0,27.4,00.0,36.9,29.8,15.6,0000.0,0007.63,0003.77,0003.52
2021-11-03 20:41:00,,0830.9,4.99,0.00,28.0,27.4,00.0,36.9,29.8,15.6,0000.0,0007.21,0003.72,0003.48
2021-11-03 20:42:00,,0830.9,4.98,0.00,28.0,27.4,00.0,36.9,29.9,15.6,0000.0,0007.16,0003.69,0003.44
2021-11-03 20:43:00,,0830.9,5.01,0.00,28.0,27.4,00.0,36.9,29.9,15.5,0000.0,0007.18,0003.64,0003.40
2021-11-03 20:44:00,,0831.0,4.98,0.00,28.1,27.4,00.0,37.0,29.9,15.5,0000.0,0007.43,0003.62,0003.37
2021-11-03 20:45:00,,0830.9,5.01,0.00,28.1,27.5,00.0,37.0,29.9,15.3,0000.0,0007.42,0003.62,0003.36
2021-11-03 20:46:00,,0830.9,5.00,0.00,28.1,27.5,00.0,37.0,29.9,15.1,0000.0,0007.36,0003.60,0003.35
2021-11-03 20:47:00,,0830.9,4.99,0.00,28.1,27.5,00.0,37.0,30.0,15.1,0000.0,0006.38,0003.59,0003.35
2021-11-03 20:48:00,,0830.9,5.01,0.00,28.1,27.5,00.0,37.0,30.0,15.1,0000.0,0005.37,0003.59,0003.38
2021-11-03 20:49:00,,0830.9,4.99,0.00,28.1,27.5,00.0,37.0,29.9,15.3,0000.0,0005.67,0003.58,0003.38
2021-11-03 20:50:00,,0830.9,4.99,0.00,28.1,27.5,00.0,37.0,30.0,15.3,0000.0,0005.97,0003.61,0003.39
2021-11-03 20:51:00,,0830.9,5.01,0.00,28.1,27.5,00.0,37.1,30.0,15.1,0000.0,0006.05,0003.64,0003.40
2021-11-03 20:52:00,,0830.9,5.00,0.00,28.2,27.5,00.0,37.1,30.0,15.0,0000.0,0006.18,0003.67,0003.42
2021-11-03 20:53:00,,0830.9,5.00,0.00,28.2,27.6,00.0,37.1,30.0,15.1,0000.0,0006.36,0003.73,0003.45
2021-11-03 20:54:00,,0830.9,5.00,0.00,28.2,27.6,00.0,37.1,30.0,15.0,0000.0,0006.43,0003.76,0003.47
2021-11-03 20:55:00,,0830.8,5.00,0.00,28.2,27.6,00.0,37.1,30.0,15.0,0000.0,0005.98,0003.79,0003.50
2021-11-03 20:56:00,,0830.8,5.00,0.00,28.2,27.6,00.0,37.1,30.0,15.2,0000.0,0006.22,0003.80,0003.51
2021-11-03 20:57:00,,0830.9,5.00,0.00,28.2,27.6,00.0,37.1,30.1,15.3,0000.0,0006.51,0003.79,0003.51
2021-11-03 20:58:00,,0830.8,5.00,0.00,28.2,27.6,00.0,37.1,30.0,15.0,0000.0,0006.51,0003.80,0003.52
2021-11-03 20:59:00,,0830.8,5.00,0.00,28.2,27.6,00.0,37.2,30.0,15.0,0000.0,0006.68,0003.85,0003.55
